TimeCST,TemperatureF,Dew PointF,Humidity,Sea Level PressureIn,VisibilityMPH,Wind Direction,Wind SpeedMPH,Gust SpeedMPH,PrecipitationIn,Events,Conditions,WindDirDegrees,DateUTC
12:15 AM,44.6,21.2,39,30.27,10.0,ENE,5.8,-,N/A,,Overcast,60,2013-01-25 06:15:00
12:35 AM,44.6,21.2,39,30.28,10.0,ENE,6.9,-,N/A,,Overcast,60,2013-01-25 06:35:00
12:55 AM,44.6,21.2,39,30.28,10.0,ENE,5.8,-,N/A,,Overcast,60,2013-01-25 06:55:00
1:15 AM,44.6,21.2,39,30.28,10.0,NE,9.2,-,N/A,,Overcast,50,2013-01-25 07:15:00
1:35 AM,44.6,21.2,39,30.28,10.0,ENE,9.2,-,N/A,,Overcast,60,2013-01-25 07:35:00
1:55 AM,44.6,19.4,37,30.28,10.0,ENE,10.4,-,N/A,,Overcast,60,2013-01-25 07:55:00
2:15 AM,44.6,19.4,37,30.28,10.0,East,10.4,-,N/A,,Overcast,80,2013-01-25 08:15:00
2:35 AM,44.6,19.4,37,30.28,10.0,East,9.2,-,N/A,,Overcast,90,2013-01-25 08:35:00
2:55 AM,44.6,19.4,37,30.29,10.0,East,11.5,-,N/A,,Overcast,90,2013-01-25 08:55:00
3:15 AM,44.6,17.6,34,30.29,10.0,East,9.2,-,N/A,,Overcast,100,2013-01-25 09:15:00
3:35 AM,44.6,17.6,34,30.28,10.0,East,12.7,17.3,N/A,,Overcast,100,2013-01-25 09:35:00
3:55 AM,44.6,19.4,37,30.27,10.0,ESE,6.9,-,N/A,,Overcast,110,2013-01-25 09:55:00
4:15 AM,44.6,19.4,37,30.28,10.0,East,8.1,-,N/A,,Overcast,100,2013-01-25 10:15:00
4:35 AM,44.6,21.2,39,30.28,10.0,ESE,8.1,-,N/A,,Overcast,110,2013-01-25 10:35:00
4:55 AM,44.6,21.2,39,30.28,10.0,ESE,6.9,-,N/A,,Overcast,110,2013-01-25 10:55:00
5:15 AM,44.6,24.8,46,30.28,10.0,ESE,5.8,-,N/A,,Overcast,110,2013-01-25 11:15:00
5:35 AM,44.6,24.8,46,30.27,10.0,SE,11.5,-,N/A,,Overcast,130,2013-01-25 11:35:00
5:55 AM,44.6,24.8,46,30.28,10.0,ESE,9.2,-,N/A,,Overcast,110,2013-01-25 11:55:00
6:15 AM,44.6,26.6,49,30.28,10.0,ESE,9.2,-,N/A,,Overcast,120,2013-01-25 12:15:00
6:35 AM,44.6,26.6,49,30.28,10.0,ESE,10.4,-,N/A,,Overcast,120,2013-01-25 12:35:00
6:55 AM,44.6,28.4,53,30.27,10.0,ESE,6.9,-,N/A,,Overcast,120,2013-01-25 12:55:00
7:35 AM,44.6,28.4,53,30.27,10.0,SE,6.9,-,N/A,,Overcast,130,2013-01-25 13:35:00
7:55 AM,44.6,30.2,57,30.27,10.0,SE,8.1,-,N/A,,Overcast,130,2013-01-25 13:55:00
8:15 AM,44.6,30.2,57,30.27,10.0,SE,5.8,-,N/A,,Overcast,130,2013-01-25 14:15:00
8:35 AM,46.4,30.2,53,30.26,10.0,SE,10.4,-,N/A,,Overcast,130,2013-01-25 14:35:00
8:55 AM,46.4,32.0,57,30.27,10.0,ESE,8.1,-,N/A,,Overcast,110,2013-01-25 14:55:00
9:15 AM,46.4,33.8,62,30.27,10.0,ESE,8.1,-,N/A,,Overcast,120,2013-01-25 15:15:00
9:35 AM,48.2,33.8,58,30.27,10.0,SE,5.8,-,N/A,,Overcast,130,2013-01-25 15:35:00
9:55 AM,50.0,35.6,58,30.27,10.0,SE,8.1,-,N/A,,Overcast,140,2013-01-25 15:55:00
10:15 AM,51.8,35.6,54,30.26,10.0,SSE,10.4,-,N/A,,Overcast,150,2013-01-25 16:15:00
10:35 AM,53.6,37.4,54,30.24,10.0,SSE,12.7,-,N/A,,Overcast,160,2013-01-25 16:35:00
10:55 AM,51.8,37.4,58,30.25,10.0,South,5.8,-,N/A,,Overcast,170,2013-01-25 16:55:00
11:15 AM,53.6,37.4,54,30.23,10.0,SSE,8.1,-,N/A,,Mostly Cloudy,150,2013-01-25 17:15:00
11:35 AM,53.6,37.4,54,30.23,10.0,South,8.1,-,N/A,,Clear,170,2013-01-25 17:35:00
11:55 AM,55.4,39.2,54,30.21,10.0,SSE,10.4,-,N/A,,Scattered Clouds,160,2013-01-25 17:55:00
12:15 PM,55.4,39.2,54,30.20,10.0,South,6.9,-,N/A,,Scattered Clouds,170,2013-01-25 18:15:00
12:35 PM,57.2,41.0,55,30.18,10.0,South,9.2,-,N/A,,Partly Cloudy,180,2013-01-25 18:35:00
12:55 PM,59.0,41.0,51,30.16,10.0,South,10.4,-,N/A,,Clear,180,2013-01-25 18:55:00
1:15 PM,60.8,41.0,48,30.16,10.0,South,16.1,-,N/A,,Clear,180,2013-01-25 19:15:00
1:35 PM,60.8,41.0,48,30.14,10.0,South,13.8,-,N/A,,Clear,190,2013-01-25 19:35:00
1:55 PM,62.6,42.8,48,30.14,10.0,South,11.5,-,N/A,,Clear,180,2013-01-25 19:55:00
2:15 PM,62.6,42.8,48,30.12,10.0,SW,17.3,23.0,N/A,,Clear,220,2013-01-25 20:15:00
2:35 PM,64.4,44.6,49,30.12,10.0,SSW,8.1,21.9,N/A,,Mostly Cloudy,210,2013-01-25 20:35:00
2:55 PM,64.4,44.6,49,30.12,10.0,SSW,11.5,17.3,N/A,,Mostly Cloudy,210,2013-01-25 20:55:00
3:15 PM,62.6,44.6,52,30.11,10.0,SSW,12.7,20.7,N/A,,Scattered Clouds,200,2013-01-25 21:15:00
3:35 PM,64.4,46.4,52,30.11,10.0,SSW,12.7,-,N/A,,Scattered Clouds,210,2013-01-25 21:35:00
3:55 PM,64.4,46.4,52,30.10,10.0,South,13.8,17.3,N/A,,Mostly Cloudy,190,2013-01-25 21:55:00
4:15 PM,64.4,46.4,52,30.11,10.0,SSW,10.4,-,N/A,,Mostly Cloudy,200,2013-01-25 22:15:00
4:35 PM,64.4,48.2,56,30.11,10.0,SW,9.2,-,N/A,,Overcast,220,2013-01-25 22:35:00
4:55 PM,64.4,48.2,56,30.10,10.0,SSW,9.2,-,N/A,,Overcast,210,2013-01-25 22:55:00
5:15 PM,64.4,48.2,56,30.10,10.0,SSW,11.5,-,N/A,,Overcast,200,2013-01-25 23:15:00
5:35 PM,64.4,48.2,56,30.10,10.0,SSW,8.1,-,N/A,,Overcast,210,2013-01-25 23:35:00
5:55 PM,62.6,48.2,59,30.11,10.0,South,6.9,-,N/A,,Overcast,190,2013-01-25 23:55:00
6:15 PM,62.6,48.2,59,30.11,10.0,SW,9.2,-,N/A,,Overcast,220,2013-01-26 00:15:00
6:35 PM,62.6,48.2,59,30.11,10.0,SSW,10.4,-,N/A,,Overcast,200,2013-01-26 00:35:00
6:55 PM,62.6,48.2,59,30.11,10.0,SSW,10.4,-,N/A,,Overcast,210,2013-01-26 00:55:00
7:15 PM,62.6,48.2,59,30.10,10.0,Calm,Calm,-,N/A,,Overcast,0,2013-01-26 01:15:00
7:35 PM,62.6,48.2,59,30.11,10.0,Calm,Calm,-,N/A,,Overcast,0,2013-01-26 01:35:00
7:55 PM,62.6,48.2,59,30.11,10.0,Calm,Calm,-,N/A,,Overcast,0,2013-01-26 01:55:00
8:15 PM,62.6,48.2,59,30.11,10.0,Calm,Calm,-,N/A,,Overcast,0,2013-01-26 02:15:00
8:35 PM,62.6,48.2,59,30.12,10.0,Calm,Calm,-,N/A,,Overcast,0,2013-01-26 02:35:00
8:55 PM,62.6,48.2,59,30.12,10.0,Calm,Calm,-,N/A,,Overcast,0,2013-01-26 02:55:00
9:15 PM,60.8,48.2,63,30.12,10.0,SW,10.4,20.7,N/A,,Overcast,230,2013-01-26 03:15:00
9:55 PM,60.8,48.2,63,30.13,10.0,SW,12.7,18.4,N/A,,Overcast,220,2013-01-26 03:55:00
10:16 PM,60.8,48.2,63,30.13,10.0,SW,12.7,17.3,N/A,,Mostly Cloudy,220,2013-01-26 04:16:00
10:35 PM,60.8,48.2,63,30.13,10.0,SW,10.4,-,N/A,,Overcast,230,2013-01-26 04:35:00
10:55 PM,60.8,48.2,63,30.13,10.0,WSW,10.4,16.1,N/A,,Overcast,240,2013-01-26 04:55:00
11:15 PM,59.0,48.2,67,30.14,10.0,WSW,6.9,-,N/A,,Overcast,240,2013-01-26 05:15:00
11:35 PM,59.0,48.2,67,30.14,10.0,WSW,8.1,-,N/A,,Overcast,240,2013-01-26 05:35:00
11:55 PM,57.2,48.2,72,30.13,10.0,WSW,6.9,-,N/A,,Overcast,240,2013-01-26 05:55:00